Location: Unspecified
(33.9275°N, 0.0000°E)
Time: 02:59:28
(UTC+00:00)

Sep Motor Cover - Visible Passes

Search period start: 04 April 2026 00:00
Search period end: 14 April 2026 00:00
Orbit: 838 x 1130 km, 71.0° (Epoch: 29 March)

Date Brightness Start Highest point End Pass type
(mag) Time Alt. Az. Time Alt. Az. Time Alt. Az.
4 Apr ? 02:26:12 45° NE 02:26:12 45° NE 02:30:39 10° NNE visible
4 Apr ? 04:11:02 20° WNW 04:11:48 20° WNW 04:16:26 10° N visible
5 Apr ? 01:09:06 12° ENE 01:09:06 12° ENE 01:09:46 10° ENE visible
5 Apr ? 02:53:56 50° N 02:53:56 50° N 02:58:43 10° NNE visible
6 Apr ? 01:36:47 23° NE 01:36:47 23° NE 01:39:19 10° NE visible
6 Apr ? 03:21:37 31° NW 03:21:37 31° NW 03:26:15 10° N visible
7 Apr ? 02:04:26 34° NNE 02:04:26 34° NNE 02:07:48 10° NNE visible
7 Apr ? 03:49:15 16° NW 03:49:15 16° NW 03:52:56 10° NNW visible
8 Apr ? 00:47:12 11° NE 00:47:12 11° NE 00:47:30 10° NE visible
8 Apr ? 02:32:01 35° N 02:32:01 35° N 02:35:42 10° N visible
9 Apr ? 01:14:45 20° NE 01:14:45 20° NE 01:16:36 10° NE visible
9 Apr ? 02:59:34 23° NW 02:59:34 23° NW 03:03:02 10° N visible
10 Apr ? 01:42:16 27° NNE 01:42:16 27° NNE 01:44:53 10° NNE visible
10 Apr ? 03:27:05 12° NW 03:27:05 12° NW 03:29:06 10° NNW visible
11 Apr ? 00:24:56 10° NE 00:24:56 10° NE 00:25:02 10° NE visible
11 Apr ? 02:09:45 26° NNW 02:09:45 26° NNW 02:12:37 10° N visible
12 Apr ? 00:52:23 18° NNE 00:52:23 18° NNE 00:53:49 10° NNE visible
12 Apr ? 02:37:12 18° NNW 02:37:12 18° NNW 02:39:42 10° N visible
13 Apr ? 01:19:47 23° N 01:19:47 23° N 01:21:55 10° NNE visible
